Time,TemperatureF,DewpointF,PressureIn,WindDirection,WindDirectionDegrees,WindSpeedMPH,WindSpeedGustMPH,Humidity,HourlyPrecipIn,Conditions,Clouds,dailyrainin,SoftwareType,DateUTC
2013-09-14 00:09:00,51.8,47.1,29.91,ENE,67,3.1,-999.0,84,-99.99,,,0.00,Acu-Link.com,2013-09-14 04:09:00,
2013-09-14 00:25:00,52.0,46.7,29.91,SE,135,2.7,-999.0,82,-99.99,,,0.00,Acu-Link.com,2013-09-14 04:25:00,
2013-09-14 00:40:00,52.0,47.0,29.90,ENE,67,1.6,-999.0,83,-99.99,,,0.00,Acu-Link.com,2013-09-14 04:40:00,
2013-09-14 00:55:00,52.0,47.0,29.91,ESE,112,1.6,-999.0,83,-99.99,,,0.00,Acu-Link.com,2013-09-14 04:55:00,
2013-09-14 01:10:00,52.2,46.8,29.91,WSW,247,2.2,-999.0,82,-99.99,,,0.00,Acu-Link.com,2013-09-14 05:10:00,
2013-09-14 01:26:00,52.3,46.7,29.91,ENE,67,0.0,-999.0,81,-99.99,,,0.00,Acu-Link.com,2013-09-14 05:26:00,
2013-09-14 01:41:00,52.3,46.4,29.91,East,90,0.0,-999.0,80,-99.99,,,0.00,Acu-Link.com,2013-09-14 05:41:00,
2013-09-14 01:56:00,52.3,45.7,29.91,ESE,112,3.8,-999.0,78,-99.99,,,0.00,Acu-Link.com,2013-09-14 05:56:00,
2013-09-14 02:12:00,52.3,45.7,29.91,NNW,337,2.7,-999.0,78,-99.99,,,0.00,Acu-Link.com,2013-09-14 06:12:00,
2013-09-14 02:27:00,52.3,45.7,29.92,SSW,202,5.1,-999.0,78,-99.99,,,0.00,Acu-Link.com,2013-09-14 06:27:00,
2013-09-14 02:42:00,52.5,45.9,29.92,ESE,112,1.6,-999.0,78,-99.99,,,0.00,Acu-Link.com,2013-09-14 06:42:00,
2013-09-14 02:58:00,52.3,45.0,29.92,SSE,157,1.6,-999.0,76,-99.99,,,0.00,Acu-Link.com,2013-09-14 06:58:00,
2013-09-14 03:13:00,52.3,45.3,29.92,ESE,112,1.6,-999.0,77,-99.99,,,0.00,Acu-Link.com,2013-09-14 07:13:00,
2013-09-14 03:28:00,52.3,45.3,29.91,ESE,112,1.6,-999.0,77,-99.99,,,0.00,Acu-Link.com,2013-09-14 07:28:00,
2013-09-14 03:43:00,52.3,45.3,29.93,SE,135,2.2,-999.0,77,-99.99,,,0.00,Acu-Link.com,2013-09-14 07:43:00,
2013-09-14 03:59:00,52.2,45.2,29.92,East,90,2.2,-999.0,77,-99.99,,,0.00,Acu-Link.com,2013-09-14 07:59:00,
2013-09-14 04:14:00,52.2,44.8,29.92,East,90,1.6,-999.0,76,-99.99,,,0.00,Acu-Link.com,2013-09-14 08:14:00,
2013-09-14 04:30:00,52.2,45.2,29.92,ESE,112,2.7,-999.0,77,-99.99,,,0.00,Acu-Link.com,2013-09-14 08:30:00,
2013-09-14 04:45:00,52.2,45.2,29.93,East,90,1.6,-999.0,77,-99.99,,,0.00,Acu-Link.com,2013-09-14 08:45:00,
2013-09-14 05:00:00,52.2,45.2,29.94,ENE,67,2.2,-999.0,77,-99.99,,,0.00,Acu-Link.com,2013-09-14 09:00:00,
2013-09-14 05:15:00,52.0,44.3,29.94,South,180,2.7,-999.0,75,-99.99,,,0.00,Acu-Link.com,2013-09-14 09:15:00,
2013-09-14 05:31:00,51.8,44.5,29.94,West,270,1.6,-999.0,76,-99.99,,,0.00,Acu-Link.com,2013-09-14 09:31:00,
2013-09-14 05:46:00,51.6,44.3,29.94,ESE,112,1.6,-999.0,76,-99.99,,,0.00,Acu-Link.com,2013-09-14 09:46:00,
2013-09-14 06:01:00,51.6,44.6,29.95,ESE,112,2.2,-999.0,77,-99.99,,,0.00,Acu-Link.com,2013-09-14 10:01:00,
2013-09-14 06:16:00,51.6,44.6,29.94,SE,135,0.0,-999.0,77,-99.99,,,0.00,Acu-Link.com,2013-09-14 10:16:00,
2013-09-14 06:31:00,51.6,44.3,29.95,SSE,157,2.2,-999.0,76,-99.99,,,0.00,Acu-Link.com,2013-09-14 10:31:00,
2013-09-14 06:47:00,51.6,44.0,29.95,ESE,112,0.0,-999.0,75,-99.99,,,0.00,Acu-Link.com,2013-09-14 10:47:00,
2013-09-14 07:02:00,51.6,44.3,29.96,West,270,1.1,-999.0,76,-99.99,,,0.00,Acu-Link.com,2013-09-14 11:02:00,
2013-09-14 07:17:00,51.3,44.6,29.97,SSW,202,0.0,-999.0,78,-99.99,,,0.00,Acu-Link.com,2013-09-14 11:17:00,
2013-09-14 07:32:00,51.3,45.0,29.98,WSW,247,0.0,-999.0,79,-99.99,,,0.00,Acu-Link.com,2013-09-14 11:32:00,
2013-09-14 07:48:00,51.1,45.1,29.98,West,270,2.7,-999.0,80,-99.99,,,0.00,Acu-Link.com,2013-09-14 11:48:00,
2013-09-14 08:03:00,51.1,45.5,29.98,SE,135,0.0,-999.0,81,-99.99,,,0.00,Acu-Link.com,2013-09-14 12:03:00,
2013-09-14 08:18:00,51.1,45.1,29.99,SSW,202,2.2,-999.0,80,-99.99,,,0.00,Acu-Link.com,2013-09-14 12:18:00,
2013-09-14 08:33:00,51.1,44.8,29.99,East,90,0.0,-999.0,79,-99.99,,,0.00,Acu-Link.com,2013-09-14 12:33:00,
2013-09-14 08:48:00,51.1,44.8,30.00,SW,225,1.6,-999.0,79,-99.99,,,0.00,Acu-Link.com,2013-09-14 12:48:00,
2013-09-14 09:04:00,51.6,45.3,30.00,South,180,0.0,-999.0,79,-99.99,,,0.00,Acu-Link.com,2013-09-14 13:04:00,
2013-09-14 09:19:00,51.8,45.5,30.01,SSW,202,1.1,-999.0,79,-99.99,,,0.00,Acu-Link.com,2013-09-14 13:19:00,
2013-09-14 09:34:00,52.3,46.0,30.01,SE,135,1.6,-999.0,79,-99.99,,,0.00,Acu-Link.com,2013-09-14 13:34:00,
2013-09-14 09:50:00,52.7,46.4,30.02,South,180,3.1,-999.0,79,-99.99,,,0.00,Acu-Link.com,2013-09-14 13:50:00,
2013-09-14 10:05:00,52.9,46.5,30.02,West,270,1.1,-999.0,79,-99.99,,,0.00,Acu-Link.com,2013-09-14 14:05:00,
2013-09-14 10:20:00,53.2,46.6,30.02,SW,225,2.2,-999.0,78,-99.99,,,0.00,Acu-Link.com,2013-09-14 14:20:00,
2013-09-14 10:35:00,53.6,46.6,30.01,West,270,1.6,-999.0,77,-99.99,,,0.00,Acu-Link.com,2013-09-14 14:35:00,
2013-09-14 10:50:00,54.1,46.7,30.01,NW,315,1.1,-999.0,76,-99.99,,,0.00,Acu-Link.com,2013-09-14 14:50:00,
2013-09-14 11:06:00,55.0,46.5,30.02,SW,225,0.0,-999.0,73,-99.99,,,0.00,Acu-Link.com,2013-09-14 15:06:00,
2013-09-14 11:21:00,55.6,46.3,30.01,WNW,292,2.2,-999.0,71,-99.99,,,0.00,Acu-Link.com,2013-09-14 15:21:00,
2013-09-14 11:36:00,55.8,46.5,30.01,SSE,157,2.7,-999.0,71,-99.99,,,0.00,Acu-Link.com,2013-09-14 15:36:00,
2013-09-14 11:52:00,57.0,46.9,30.02,SSE,157,0.0,-999.0,69,-99.99,,,0.00,Acu-Link.com,2013-09-14 15:52:00,
2013-09-14 12:07:00,57.4,46.9,30.02,ESE,112,1.1,-999.0,68,-99.99,,,0.00,Acu-Link.com,2013-09-14 16:07:00,
2013-09-14 12:22:00,57.7,46.9,30.02,SW,225,1.6,-999.0,67,-99.99,,,0.00,Acu-Link.com,2013-09-14 16:22:00,
2013-09-14 12:37:00,58.1,46.8,30.02,East,90,3.1,-999.0,66,-99.99,,,0.00,Acu-Link.com,2013-09-14 16:37:00,
2013-09-14 12:53:00,57.2,45.9,30.01,SE,135,4.3,-999.0,66,-99.99,,,0.00,Acu-Link.com,2013-09-14 16:53:00,
2013-09-14 13:08:00,58.5,46.7,30.01,SW,225,2.2,-999.0,65,-99.99,,,0.00,Acu-Link.com,2013-09-14 17:08:00,
2013-09-14 13:23:00,57.4,46.5,30.01,SSW,202,3.1,-999.0,67,-99.99,,,0.00,Acu-Link.com,2013-09-14 17:23:00,
2013-09-14 13:38:00,58.3,47.4,30.01,SW,225,2.2,-999.0,67,-99.99,,,0.00,Acu-Link.com,2013-09-14 17:38:00,
2013-09-14 13:54:00,58.8,45.8,30.01,East,90,2.7,-999.0,62,-99.99,,,0.00,Acu-Link.com,2013-09-14 17:54:00,
2013-09-14 14:09:00,58.6,46.9,30.01,SE,135,1.6,-999.0,65,-99.99,,,0.00,Acu-Link.com,2013-09-14 18:09:00,
2013-09-14 14:24:00,63.3,49.2,30.00,SE,135,1.6,-999.0,60,-99.99,,,0.00,Acu-Link.com,2013-09-14 18:24:00,
2013-09-14 14:40:00,59.5,47.4,29.99,ESE,112,2.2,-999.0,64,-99.99,,,0.00,Acu-Link.com,2013-09-14 18:40:00,
2013-09-14 14:55:00,61.9,46.5,29.99,South,180,2.2,-999.0,57,-99.99,,,0.00,Acu-Link.com,2013-09-14 18:55:00,
2013-09-14 15:10:00,61.3,48.2,29.99,NE,45,1.1,-999.0,62,-99.99,,,0.00,Acu-Link.com,2013-09-14 19:10:00,
2013-09-14 15:26:00,61.0,48.7,29.98,East,90,4.7,-999.0,64,-99.99,,,0.00,Acu-Link.com,2013-09-14 19:26:00,
2013-09-14 15:41:00,60.6,49.2,29.99,ESE,112,2.7,-999.0,66,-99.99,,,0.00,Acu-Link.com,2013-09-14 19:41:00,
2013-09-14 15:56:00,60.4,49.4,29.98,East,90,2.2,-999.0,67,-99.99,,,0.00,Acu-Link.com,2013-09-14 19:56:00,
2013-09-14 16:11:00,60.3,49.3,29.98,ESE,112,3.1,-999.0,67,-99.99,,,0.00,Acu-Link.com,2013-09-14 20:11:00,
2013-09-14 16:27:00,60.1,48.7,29.98,East,90,4.7,-999.0,66,-99.99,,,0.00,Acu-Link.com,2013-09-14 20:27:00,
2013-09-14 16:42:00,60.8,49.0,29.98,ESE,112,0.0,-999.0,65,-99.99,,,0.00,Acu-Link.com,2013-09-14 20:42:00,
2013-09-14 16:57:00,62.1,49.7,29.98,ENE,67,3.8,-999.0,64,-99.99,,,0.00,Acu-Link.com,2013-09-14 20:57:00,
2013-09-14 17:13:00,61.0,46.5,29.98,South,180,2.7,-999.0,59,-99.99,,,0.00,Acu-Link.com,2013-09-14 21:13:00,
2013-09-14 17:28:00,61.3,47.3,29.99,ESE,112,0.0,-999.0,60,-99.99,,,0.00,Acu-Link.com,2013-09-14 21:28:00,
2013-09-14 17:43:00,64.8,42.9,30.00,WSW,247,2.2,-999.0,45,-99.99,,,0.00,Acu-Link.com,2013-09-14 21:43:00,
2013-09-14 17:59:00,62.8,43.9,30.00,ESE,112,1.6,-999.0,50,-99.99,,,0.00,Acu-Link.com,2013-09-14 21:59:00,
2013-09-14 18:14:00,60.1,42.4,30.00,SE,135,0.0,-999.0,52,-99.99,,,0.00,Acu-Link.com,2013-09-14 22:14:00,
2013-09-14 18:29:00,58.8,42.7,29.99,WSW,247,0.0,-999.0,55,-99.99,,,0.00,Acu-Link.com,2013-09-14 22:29:00,
2013-09-14 18:44:00,57.7,43.1,29.99,SE,135,0.0,-999.0,58,-99.99,,,0.00,Acu-Link.com,2013-09-14 22:44:00,
2013-09-14 19:00:00,56.7,45.8,30.00,ESE,112,0.0,-999.0,67,-99.99,,,0.00,Acu-Link.com,2013-09-14 23:00:00,
2013-09-14 19:15:00,54.9,45.6,29.99,ESE,112,0.0,-999.0,71,-99.99,,,0.00,Acu-Link.com,2013-09-14 23:15:00,
2013-09-14 19:30:00,53.2,44.8,29.99,SE,135,0.0,-999.0,73,-99.99,,,0.00,Acu-Link.com,2013-09-14 23:30:00,
2013-09-14 19:45:00,52.0,44.7,29.99,SE,135,0.0,-999.0,76,-99.99,,,0.00,Acu-Link.com,2013-09-14 23:45:00,
2013-09-14 20:00:00,50.9,44.3,30.00,SSE,157,0.0,-999.0,78,-99.99,,,0.00,Acu-Link.com,2013-09-15 00:00:00,
2013-09-14 20:16:00,50.4,44.1,30.00,South,180,0.0,-999.0,79,-99.99,,,0.00,Acu-Link.com,2013-09-15 00:16:00,
2013-09-14 20:31:00,50.2,43.9,30.01,SSW,202,0.0,-999.0,79,-99.99,,,0.00,Acu-Link.com,2013-09-15 00:31:00,
2013-09-14 20:46:00,49.8,43.9,30.01,South,180,0.0,-999.0,80,-99.99,,,0.00,Acu-Link.com,2013-09-15 00:46:00,
2013-09-14 21:02:00,49.5,43.6,30.01,South,180,0.0,-999.0,80,-99.99,,,0.00,Acu-Link.com,2013-09-15 01:02:00,
2013-09-14 21:17:00,49.5,43.6,30.02,SE,135,0.0,-999.0,80,-99.99,,,0.00,Acu-Link.com,2013-09-15 01:17:00,
2013-09-14 21:32:00,49.5,43.6,30.03,South,180,0.0,-999.0,80,-99.99,,,0.00,Acu-Link.com,2013-09-15 01:32:00,
2013-09-14 21:48:00,49.1,43.2,30.02,South,180,0.0,-999.0,80,-99.99,,,0.00,Acu-Link.com,2013-09-15 01:48:00,
2013-09-14 22:03:00,49.3,43.0,30.02,South,180,0.0,-999.0,79,-99.99,,,0.00,Acu-Link.com,2013-09-15 02:03:00,
2013-09-14 22:18:00,49.3,43.0,30.02,South,180,0.0,-999.0,79,-99.99,,,0.00,Acu-Link.com,2013-09-15 02:18:00,
2013-09-14 22:33:00,49.6,43.4,30.02,South,180,0.0,-999.0,79,-99.99,,,0.00,Acu-Link.com,2013-09-15 02:33:00,
2013-09-14 22:49:00,50.0,43.7,30.02,South,180,0.0,-999.0,79,-99.99,,,0.00,Acu-Link.com,2013-09-15 02:49:00,
2013-09-14 23:04:00,50.2,43.9,30.02,SSW,202,0.0,-999.0,79,-99.99,,,0.00,Acu-Link.com,2013-09-15 03:04:00,
2013-09-14 23:19:00,50.5,44.3,30.02,SSW,202,0.0,-999.0,79,-99.99,,,0.00,Acu-Link.com,2013-09-15 03:19:00,
2013-09-14 23:34:00,50.9,44.6,30.02,SSW,202,2.2,-999.0,79,-99.99,,,0.00,Acu-Link.com,2013-09-15 03:34:00,
2013-09-14 23:50:00,51.4,44.8,30.01,West,270,2.7,-999.0,78,-99.99,,,0.00,Acu-Link.com,2013-09-15 03:50:00,